Home > Weather > Cape Town > Past weeks

Flag for South Africa Weather for the Past 2 Weeks in Cape Town, South Africa

Now
75 °F

Scattered clouds.


Feels Like: 78 °F
Forecast: 63 / 69 °F
Wind: 16 mph from Southwest

Location: Cape Town International Airport

Current Time: Feb 14, 2016 at 5:50:12 PM

Latest Report: Feb 14, 2016 at 5:00 PM


Visibility: N/A

Pressure: 29.89 "Hg

Humidity: 47%

Dew point: 54 °F

Location of Cape TownLocation

Historic Weather in Cape Town — Graph

°F

Cape Town Temperature Yesterday

Maximum temperature yesterday: 77 °F (at 12:00 PM)
Minimum temperature yesterday: 64 °F (at 6:00 AM)
Average temperature yesterday: 71 °F

High & Low Weather Summary for the Past Weeks

 TemperatureHumidityPressure
High91 °F (Jan 31, 2:00 PM)94% (Feb 11, 12:00 AM)30.09 "Hg (Feb 11, 12:00 AM)
Low61 °F (Feb 10, 5:00 AM)23% (Feb 9, 12:00 AM)29.74 "Hg (Feb 1, 3:00 AM)
Average74 °F66%29.89 "Hg
* Reported Jan 30 4:00 PM — Feb 14 4:00 PM, Cape Town, Weather by CustomWeather, © 2016

Note: Actual official high and low records may vary slightly from our data, if they occured in-between our weather recording intervals... More about our weather records

Advertising

Cape Town Weather History for the Previous 24 Hours

 ConditionsComfort  
Time TempWeatherWind HumidityBarometerVisibility
4:00 PM
Sun, Feb 14
77 °FScattered clouds.16 mph44%29.89 "HgN/A
3:00 PM73 °FPartly sunny.14 mph53%29.92 "HgN/A
2:00 PM73 °FBroken clouds.15 mph53%29.92 "HgN/A
1:00 PM77 °FPartly sunny.13 mph47%29.89 "HgN/A
12:00 PM75 °FPartly sunny.12 mph57%29.92 "HgN/A
11:00 AM72 °FScattered clouds.15 mph69%29.92 "HgN/A
10:00 AM66 °FScattered clouds.14 mph83%29.92 "HgN/A
9:00 AM70 °FBroken clouds.12 mph69%29.92 "HgN/A
8:00 AM68 °FScattered clouds.9 mph73%29.92 "HgN/A
7:00 AM64 °FPassing clouds.6 mph83%29.89 "HgN/A
6:00 AM63 °FPassing clouds.6 mph83%29.89 "HgN/A
5:00 AM63 °FPassing clouds.6 mph83%29.89 "HgN/A
4:00 AM64 °FPassing clouds.8 mph78%29.89 "HgN/A
3:00 AM63 °FPassing clouds.9 mph88%29.89 "HgN/A
2:00 AM64 °FPassing clouds.8 mph83%29.89 "HgN/A
1:00 AM64 °FPassing clouds.6 mph83%29.92 "HgN/A
12:00 AM66 °FPassing clouds.7 mph83%29.92 "HgN/A
11:00 PM
Sat, Feb 13
66 °FPassing clouds.5 mph78%29.92 "HgN/A
10:00 PM70 °FPassing clouds.13 mph69%29.89 "HgN/A
9:00 PM70 °FPassing clouds.8 mph73%29.89 "HgN/A
8:00 PM72 °FPassing clouds.8 mph69%29.89 "HgN/A
7:00 PM73 °FPassing clouds.10 mph65%29.86 "HgN/A
6:00 PM73 °FPartly sunny.13 mph65%29.86 "HgN/A
5:00 PM75 °FScattered clouds.14 mph65%29.86 "HgN/A
Weather by CustomWeather, © 2016

See weather overviewHow to use our weather pages